Location: Preissac
(48.4072°N, 78.3618°W)
Time: 17:09:29
(UTC-04:00)

ISS - Pass Details

Date: 04 July 2019
Orbit: 409 x 418 km, 51.6° (Epoch: 20 July)

Event Time Altitude Azimuth Distance (km) Brightness Sun altitude
Exits shadow 03:33:01 18° 179° (S) 1,076 -2.2 -12.6°
Maximum altitude 03:34:24 24° 142° (SE) 898 -2.3 -12.4°
Drops below altitude 10° 03:37:08 10° 86° (E) 1,477 -0.5 -12.2°
Sets 03:39:27 0° 72° (ENE) 2,341 0.9 -12.0°
